Location: Stonelick Lake State Park
(39.2170°N, 84.0850°W)
Time: 05:47:31
(UTC-05:00)

Amateur Radio Satellites - All Passes

Search period start: 16 January 2017 05:17
Search period end: 17 January 2017 05:17
Location: Stonelick Lake State Park, 39.2170°N, 84.0850°W

Satellite Date Start Highest point End Downlink Frequencies (MHz)
Time Altitude Azimuth
ISS 16 Jan 05:19:32 05:21:28 15° 19° (NNE) 05:23:25 145.825
GOMX 1 16 Jan 05:21:08 05:24:14 18° 92° (E) 05:27:14 467.674
RS-15 16 Jan 05:34:07 05:42:26 20° 358° (N) 05:50:47 29.354- 29.394
STRAND 1 16 Jan 05:34:56 05:35:34 10° 59° (ENE) 05:36:13 437.568
ITAMSAT 1 16 Jan 05:45:53 05:46:19 10° 302° (WNW) 05:46:46 435.822/435.867
NOAA 15 16 Jan 05:46:11 05:49:29 16° 92° (E) 05:52:45 137.62
CUBESAT XI-V 16 Jan 05:48:26 05:51:53 20° 267° (W) 05:55:22 437.345
HORYU 2 16 Jan 05:56:56 06:01:18 56° 101° (E) 06:05:40 437.375
PHONESAT 2.4 16 Jan 06:04:38 06:06:57 66° 353° (N) 06:09:16 2401.200-2431.200
STARS 16 Jan 06:05:32 06:07:00 11° 269° (W) 06:08:29 437.465
AO-7 16 Jan 06:06:47 06:13:29 28° 304° (WNW) 06:20:10 29.400- 29.500
LilacSat-2 16 Jan 06:09:30 06:12:45 25° 96° (E) 06:15:59 437.200
CUTE-I 16 Jan 06:16:14 06:20:55 31° 96° (E) 06:25:36 437.470
GONETS M04 16 Jan 06:19:51 06:25:41 19° 64° (ENE) 06:31:29
NOAA 18 16 Jan 06:22:14 06:25:58 19° 93° (E) 06:29:41 137.9125
AIST 2 16 Jan 06:22:53 06:27:08 81° 242° (WSW) 06:31:21 435.215
DOVE 4 16 Jan 06:25:04 06:28:55 33° 97° (E) 06:32:39 437.250
BRITE-PL 16 Jan 06:28:47 06:33:16 32° 292° (WNW) 06:37:25 437.365/2234.400
O/OREOS (USA 219) 16 Jan 06:31:07 06:33:07 13° 98° (E) 06:35:08 437.305
DANDE 16 Jan 06:37:41 06:39:15 12° 299° (WNW) 06:40:58 436.750
Cosmos 2499 16 Jan 06:40:54 06:46:44 26° 70° (ENE) 06:52:25 435.465 / 435.565
CINEMA 3 16 Jan 06:53:53 06:56:14 15° 93° (E) 06:58:36 145.822/145.860
ISS 16 Jan 06:55:12 06:58:27 69° 37° (NE) 07:01:41 145.825
Cubesat XI-IV 16 Jan 06:57:18 07:02:39 75° 103° (ESE) 07:07:59 437.490
GOMX 1 16 Jan 06:58:20 07:02:31 36° 290° (WNW) 07:06:28 467.674
STRAND 1 16 Jan 07:08:50 07:13:54 85° 77° (ENE) 07:19:02 437.568
HO-68 16 Jan 07:11:28 07:16:51 22° 93° (E) 07:22:11 435.675
NOAA 15 16 Jan 07:24:23 07:29:37 59° 288° (WNW) 07:34:48 137.62
HORYU 2 16 Jan 07:35:06 07:37:22 14° 296° (WNW) 07:39:37 437.375
PHONESAT 2.4 16 Jan 07:38:56 07:41:16 77° 10° (N) 07:43:36 2401.200-2431.200
LilacSat-2 16 Jan 07:43:59 07:46:53 21° 291° (WNW) 07:49:48 437.200
AAUSAT CUBESAT 2 16 Jan 07:49:10 07:50:19 11° 90° (E) 07:51:29 437.432
RS-15 16 Jan 07:50:00 08:00:41 32° 33° (NNE) 08:11:05 29.354- 29.394
CUTE-I 16 Jan 07:56:13 08:00:53 32° 292° (WNW) 08:05:34 437.470
CUTE 1.7 + AOD 2 16 Jan 08:01:06 08:05:18 50° 99° (E) 08:09:27 437.475
NOAA 18 16 Jan 08:01:37 08:06:56 54° 289° (WNW) 08:12:13 137.9125
DOVE 4 16 Jan 08:03:24 08:06:22 19° 293° (WNW) 08:09:17 437.250
O/OREOS (USA 219) 16 Jan 08:07:37 08:12:00 54° 294° (WNW) 08:16:24 437.305
GONETS M04 16 Jan 08:14:49 08:23:42 88° 265° (W) 08:32:34
CUBEBUG 2 16 Jan 08:20:35 08:24:28 33° 97° (E) 08:28:27 437.445
PRISM 16 Jan 08:25:13 08:28:42 26° 69° (ENE) 08:32:12 437.425
CANX-2 16 Jan 08:29:14 08:33:31 65° 284° (WNW) 08:37:45 2200.000
CINEMA 3 16 Jan 08:29:39 08:33:33 41° 287° (WNW) 08:37:31 145.822/145.860
Cosmos 2499 16 Jan 08:33:18 08:40:13 51° 269° (W) 08:46:57 435.465 / 435.565
ISS 16 Jan 08:33:25 08:34:30 11° 232° (SW) 08:35:36 145.825
Cubesat XI-IV 16 Jan 08:39:18 08:42:03 14° 299° (WNW) 08:44:49 437.490
Oscar 11 16 Jan 08:39:45 08:42:36 17° 93° (E) 08:45:27 145.826/435.025
SO-50 16 Jan 08:45:24 08:49:33 31° 114° (ESE) 08:53:40 436.795
SEEDS 16 Jan 08:50:43 08:54:57 65° 285° (WNW) 08:59:09 437.485
UNISAT 6 16 Jan 08:56:17 08:59:02 17° 66° (ENE) 09:01:46 437.425
HO-68 16 Jan 08:57:56 09:05:02 65° 290° (WNW) 09:12:05 435.675
UWE-3 16 Jan 08:59:09 09:03:24 57° 100° (E) 09:07:45 435.000/436.395/437.385
COMPASS 1 16 Jan 09:05:36 09:09:47 67° 285° (WNW) 09:13:57 437.405
FUNcube-1 16 Jan 09:08:57 09:13:02 39° 98° (E) 09:17:11 145.935
TIGRISAT 16 Jan 09:10:33 09:13:50 22° 68° (ENE) 09:17:07 435.000
PHONESAT 2.4 16 Jan 09:13:23 09:15:22 23° 205° (SSW) 09:17:20 2401.200-2431.200
AAUSAT CUBESAT 2 16 Jan 09:22:01 09:26:07 56° 286° (WNW) 09:30:12 437.432
ANTELSAT 16 Jan 09:23:54 09:27:43 33° 71° (ENE) 09:31:32 437.575/2403.000
ZACube-1 16 Jan 09:28:58 09:33:19 75° 102° (ESE) 09:37:44 437.345
CUTE 1.7 + AOD 2 16 Jan 09:38:25 09:40:41 14° 295° (WNW) 09:42:57 437.475
PCSat 16 Jan 09:46:46 09:49:35 14° 42° (NE) 09:52:23 145.827
DELFI C3 16 Jan 09:47:02 09:50:36 30° 96° (E) 09:54:07 145.870
CUBEBUG 2 16 Jan 09:57:44 10:00:53 20° 292° (WNW) 10:04:06 437.445
PRISM 16 Jan 10:00:33 10:03:55 23° 264° (W) 10:07:19 437.425
RS-15 16 Jan 10:02:42 10:15:08 88° 61° (ENE) 10:27:02 29.354- 29.394
GONETS M04 16 Jan 10:14:16 10:19:09 16° 283° (WNW) 10:24:04
Oscar 11 16 Jan 10:14:48 10:18:53 39° 288° (WNW) 10:22:56 145.826/435.025
POPSAT HIP 1 16 Jan 10:15:35 10:16:54 11° 64° (ENE) 10:18:15 437.405
HUMSAT D 16 Jan 10:22:53 10:26:59 44° 99° (E) 10:31:05 437.325/437.525
SO-50 16 Jan 10:25:47 10:29:58 31° 310° (NW) 10:34:07 436.795
DUCHIFAT 1 16 Jan 10:31:23 10:33:45 15° 65° (ENE) 10:36:06 145.980
UNISAT 6 16 Jan 10:31:24 10:35:25 39° 261° (W) 10:39:27 437.425
NANOSAT C BR1 16 Jan 10:33:53 10:36:39 17° 66° (ENE) 10:39:26 145.865
UWE-3 16 Jan 10:37:30 10:39:24 13° 295° (WNW) 10:41:19 435.000/436.395/437.385
JAS-2 16 Jan 10:43:14 10:48:23 68° 73° (ENE) 10:53:57 435.910
FUNcube-1 16 Jan 10:46:03 10:48:58 18° 293° (WNW) 10:51:55 145.935
TIGRISAT 16 Jan 10:46:39 10:50:22 29° 264° (W) 10:54:05 435.000
HO-68 16 Jan 10:48:54 10:51:23 12° 309° (NW) 10:53:52 435.675
ANTELSAT 16 Jan 11:01:24 11:04:29 19° 266° (W) 11:07:34 437.575/2403.000
ZACube-1 16 Jan 11:08:44 11:09:00 10° 297° (WNW) 11:09:15 437.345
BY70-1 16 Jan 11:12:11 11:15:26 38° 98° (E) 11:18:32 436.1900
QB50P1 16 Jan 11:21:32 11:25:41 66° 75° (ENE) 11:29:52 145.935-145.965
DELFI C3 16 Jan 11:22:20 11:25:11 19° 292° (WNW) 11:28:00 145.870
POLYITAN 1 16 Jan 11:24:07 11:28:18 72° 75° (ENE) 11:32:28 437.675
BUGSAT 1 16 Jan 11:24:45 11:27:47 21° 68° (ENE) 11:30:49 437.445
QB50P2 16 Jan 11:25:09 11:29:22 79° 75° (ENE) 11:33:34 145.880/145.840
PCSat 16 Jan 11:28:22 11:33:50 82° 62° (ENE) 11:39:15 145.827
CUBEBUG 1 16 Jan 11:29:03 11:31:53 17° 93° (E) 11:34:41 437.445
ESTCUBE 1 16 Jan 11:33:37 11:37:46 34° 98° (E) 11:41:52 437.505/2401.250
AISAT 16 Jan 11:33:49 11:35:30 12° 91° (E) 11:37:10 437.250
POPSAT HIP 1 16 Jan 11:48:00 11:52:09 61° 260° (W) 11:56:18 437.405
HUMSAT D 16 Jan 11:59:40 12:02:12 16° 294° (WNW) 12:04:45 437.325/437.525
50 SAT 16 Jan 11:59:54 12:01:56 14° 93° (E) 12:03:56 437.505
DUCHIFAT 1 16 Jan 12:05:03 12:09:02 44° 261° (W) 12:13:02 145.980
VELOX 1 16 Jan 12:05:46 12:09:30 26° 96° (E) 12:13:11 145.980
NANOSAT C BR1 16 Jan 12:08:12 12:12:04 37° 262° (W) 12:15:58 145.865
RS-15 16 Jan 12:17:12 12:25:56 24° 260° (W) 12:34:28 29.354- 29.394
Cosmos 2491 16 Jan 12:30:22 12:36:01 18° 63° (ENE) 12:41:39 435.465 / 435.565
JAS-2 16 Jan 12:31:55 12:34:12 13° 272° (W) 12:36:33 435.910
BY70-1 16 Jan 12:44:15 12:45:26 11° 295° (WNW) 12:46:36 436.1900
Gurwin Techsat 1B 16 Jan 12:45:12 12:49:25 25° 65° (ENE) 12:53:38 435.225
DX 1 16 Jan 12:53:16 12:57:23 42° 99° (E) 13:01:29 434.975-435.025
BUGSAT 1 16 Jan 12:59:24 13:02:58 29° 263° (W) 13:06:33 437.445
UKube-1 16 Jan 13:01:52 13:05:54 37° 99° (E) 13:09:53 .
CUBEBUG 1 16 Jan 13:04:16 13:08:18 39° 289° (WNW) 13:12:18 437.445
Oscar 19 16 Jan 13:07:25 13:12:34 74° 75° (ENE) 13:17:47 437.125/150
AISAT 16 Jan 13:07:59 13:12:18 56° 286° (WNW) 13:16:34 437.250
SPROUT 16 Jan 13:09:19 13:13:35 77° 283° (WNW) 13:17:48 437.525
ESTCUBE 1 16 Jan 13:10:52 13:14:20 22° 293° (WNW) 13:17:47 437.505/2401.250
PCSat 16 Jan 13:14:26 13:16:26 12° 258° (WSW) 13:18:27 145.827
TISAT 1 16 Jan 13:19:20 13:22:07 17° 94° (E) 13:24:53 437.305
AO-7 16 Jan 13:21:58 13:27:15 19° 51° (NE) 13:32:31 29.400- 29.500
50 SAT 16 Jan 13:32:03 13:35:13 30° 288° (WNW) 13:38:20 437.505
AIST 1 16 Jan 13:41:42 13:42:45 11° 84° (E) 13:43:48
VELOX 1 16 Jan 13:42:12 13:45:52 26° 291° (WNW) 13:49:29 145.980
ITAMSAT 1 16 Jan 13:42:22 13:45:38 17° 62° (ENE) 13:48:53 435.822/435.867
CUSAT 1 16 Jan 13:43:39 13:49:27 22° 65° (ENE) 13:55:09 437.405
ITUPSAT 1 16 Jan 14:21:19 14:24:26 17° 93° (E) 14:27:31 437.325
Gurwin Techsat 1B 16 Jan 14:24:07 14:29:06 41° 262° (W) 14:34:06 435.225
Cosmos 2491 16 Jan 14:25:16 14:34:05 90° 260° (W) 14:42:55 435.465 / 435.565
AO-85 16 Jan 14:28:59 14:32:48 24° 113° (ESE) 14:36:25 145.980
DX 1 16 Jan 14:30:27 14:33:14 17° 295° (WNW) 14:36:00 434.975-435.025
YUBILEINY 16 Jan 14:31:51 14:40:05 46° 88° (E) 14:48:21 435.215
UKube-1 16 Jan 14:38:40 14:41:37 18° 294° (WNW) 14:44:34 .
Cosmos 2504 16 Jan 14:49:33 14:57:00 32° 85° (E) 15:04:09 435.465 / 435.565
Oscar 19 16 Jan 14:50:19 14:52:24 12° 270° (W) 14:54:30 437.125/150
TISAT 1 16 Jan 14:54:03 14:57:51 35° 289° (WNW) 15:01:38 437.305
BEESAT 16 Jan 14:57:59 15:02:31 41° 99° (E) 15:07:02 436.000
SWISSCUBE 16 Jan 14:59:03 15:03:42 48° 100° (E) 15:08:19 437.505
AO-7 16 Jan 15:10:25 15:18:46 82° 70° (ENE) 15:27:11 29.400- 29.500
AIST 1 16 Jan 15:15:26 15:19:45 58° 279° (W) 15:24:05
ITAMSAT 1 16 Jan 15:19:30 15:24:35 59° 259° (W) 15:29:42 435.822/435.867
CUSAT 1 16 Jan 15:24:14 15:32:13 83° 263° (W) 15:39:52 437.405
DANDE 16 Jan 15:28:05 15:35:11 45° 75° (ENE) 15:43:03 436.750
MOZHAYETS 4 16 Jan 15:34:14 15:38:19 30° 96° (E) 15:42:22
ITUPSAT 1 16 Jan 15:57:52 16:02:29 48° 288° (WNW) 16:07:05 437.325
BRITE-PL 16 Jan 15:58:58 16:03:51 31° 68° (ENE) 16:08:46 437.365/2234.400
M-CUBED/EXP-1 PRIME 16 Jan 16:07:34 16:10:11 20° 100° (E) 16:12:42 437.505
AO-85 16 Jan 16:08:41 16:13:04 37° 307° (NW) 16:17:10 145.980
STARS 16 Jan 16:18:45 16:20:03 11° 91° (E) 16:21:20 437.465
Cosmos 2491 16 Jan 16:24:39 16:29:36 17° 283° (WNW) 16:34:36 435.465 / 435.565
GOMX 1 16 Jan 16:27:02 16:31:15 23° 67° (ENE) 16:35:23 467.674
YUBILEINY 16 Jan 16:28:59 16:36:57 38° 287° (WNW) 16:45:02 435.215
BEESAT 16 Jan 16:36:30 16:39:59 20° 294° (WNW) 16:43:27 436.000
SWISSCUBE 16 Jan 16:37:53 16:41:05 18° 296° (WNW) 16:44:15 437.505
O/OREOS (USA 219) 16 Jan 16:39:54 16:43:27 22° 59° (ENE) 16:46:59 437.305
Cosmos 2504 16 Jan 16:41:28 16:50:00 53° 282° (WNW) 16:58:09 435.465 / 435.565
Cubesat XI-IV 16 Jan 16:41:31 16:44:12 14° 61° (ENE) 16:46:53 437.490
KKS-1 16 Jan 16:46:39 16:51:01 55° 101° (E) 16:55:20 437.445
AUBIESAT-1 16 Jan 16:47:35 16:50:57 58° 105° (ESE) 16:54:12 437.475
BEESAT 3 16 Jan 16:49:14 16:51:39 16° 110° (ESE) 16:54:04 437.485
LilacSat-2 16 Jan 16:52:19 16:53:37 11° 65° (ENE) 16:54:53 437.200
HORYU 2 16 Jan 16:53:43 16:57:54 44° 72° (ENE) 17:02:06 437.375
NOAA 15 16 Jan 17:04:54 17:09:06 25° 65° (ENE) 17:13:20 137.62
AO-7 16 Jan 17:06:41 17:12:20 20° 268° (W) 17:18:03 29.400- 29.500
CUSAT 1 16 Jan 17:08:35 17:12:58 16° 280° (W) 17:17:16 437.405
DANDE 16 Jan 17:10:55 17:17:48 40° 269° (W) 17:25:22 436.750
MOZHAYETS 4 16 Jan 17:11:30 17:15:20 26° 292° (WNW) 17:19:09
SO-50 16 Jan 17:17:45 17:21:18 22° 47° (NE) 17:24:49 436.795
BEESAT 2 16 Jan 17:24:02 17:26:32 17° 110° (ESE) 17:29:05 435.950
DOVE 4 16 Jan 17:28:35 17:33:10 35° 71° (ENE) 17:37:35 437.250
CUTE-I 16 Jan 17:36:52 17:41:54 46° 71° (ENE) 17:46:58 437.470
BRITE-PL 16 Jan 17:36:57 17:42:08 37° 264° (W) 17:47:23 437.365/2234.400
HO-68 16 Jan 17:40:56 17:45:03 16° 55° (NE) 17:49:09 435.675
M-CUBED/EXP-1 PRIME 16 Jan 17:42:05 17:44:35 19° 297° (WNW) 17:46:59 437.505
CUBESAT XI-V 16 Jan 17:44:27 17:49:10 75° 284° (WNW) 17:53:49 437.345
NOAA 18 16 Jan 17:47:00 17:51:53 33° 67° (ENE) 17:56:45 137.9125
STARS 16 Jan 17:52:27 17:56:45 60° 286° (WNW) 18:01:02 437.465
CINEMA 3 16 Jan 17:55:06 17:57:21 14° 66° (ENE) 17:59:33 145.822/145.860
GOMX 1 16 Jan 18:03:47 18:09:01 45° 262° (W) 18:14:07 467.674
Cubesat XI-IV 16 Jan 18:18:17 18:23:35 76° 257° (WSW) 18:28:56 437.490
O/OREOS (USA 219) 16 Jan 18:18:51 18:22:54 33° 255° (WSW) 18:26:56 437.305
LilacSat-2 16 Jan 18:23:50 18:27:27 46° 261° (W) 18:31:07 437.200
KKS-1 16 Jan 18:24:51 18:27:04 14° 297° (WNW) 18:29:17 437.445
BEESAT 3 16 Jan 18:25:15 18:28:54 39° 306° (NW) 18:32:38 437.485
HORYU 2 16 Jan 18:32:03 18:34:40 15° 267° (W) 18:37:17 437.375
JUGNU 16 Jan 18:32:52 18:34:12 11° 183° (S) 18:35:32 437.505
NOAA 15 16 Jan 18:43:41 18:48:37 40° 261° (W) 18:53:37 137.62
CUTE 1.7 + AOD 2 16 Jan 18:52:43 18:56:25 30° 71° (ENE) 19:00:10 437.475
SO-50 16 Jan 18:57:42 19:01:56 42° 244° (WSW) 19:06:07 436.795
BEESAT 2 16 Jan 19:00:17 19:04:00 39° 306° (NW) 19:07:46 435.950
DOVE 4 16 Jan 19:06:38 19:10:51 25° 265° (W) 19:14:55 437.250
Cosmos 2499 16 Jan 19:16:14 19:22:42 25° 83° (E) 19:28:51 435.465 / 435.565
CUBEBUG 2 16 Jan 19:18:09 19:21:30 24° 69° (ENE) 19:24:50 437.445
CUTE-I 16 Jan 19:18:11 19:22:09 21° 266° (W) 19:26:07 437.470
CANX-2 16 Jan 19:20:24 19:24:36 76° 77° (ENE) 19:28:53 2200.000
STRAND 1 16 Jan 19:20:42 19:25:16 31° 97° (E) 19:29:47 437.568
GONETS M04 16 Jan 19:20:53 19:26:55 21° 80° (E) 19:32:58
HO-68 16 Jan 19:24:30 19:31:42 85° 73° (ENE) 19:38:57 435.675
NOAA 18 16 Jan 19:27:38 19:32:29 31° 263° (W) 19:37:21 137.9125
CINEMA 3 16 Jan 19:29:36 19:34:05 54° 260° (W) 19:38:22 145.822/145.860
Oscar 11 16 Jan 19:34:50 19:36:31 12° 64° (ENE) 19:38:13 145.826/435.025
SEEDS 16 Jan 19:40:46 19:44:57 73° 76° (ENE) 19:49:11 437.485
SRMSAT 16 Jan 19:53:58 19:55:20 11° 177° (S) 19:56:43 437.500
COMPASS 1 16 Jan 19:54:39 19:58:47 68° 76° (ENE) 20:02:58 437.405
UWE-3 16 Jan 19:55:14 19:59:05 38° 72° (ENE) 20:02:56 435.000/436.395/437.385
FUNcube-1 16 Jan 20:03:51 20:07:15 25° 70° (ENE) 20:10:40 145.935
AAUSAT CUBESAT 2 16 Jan 20:10:26 20:14:35 80° 77° (ENE) 20:18:47 437.432
AIST 2 16 Jan 20:19:40 20:23:05 26° 113° (ESE) 20:26:35 435.215
ZACube-1 16 Jan 20:23:43 20:27:41 47° 73° (ENE) 20:31:40 437.345
CUTE 1.7 + AOD 2 16 Jan 20:29:04 20:32:16 21° 266° (W) 20:35:31 437.475
DELFI C3 16 Jan 20:32:23 20:34:54 16° 67° (ENE) 20:37:25 145.870
CUBEBUG 2 16 Jan 20:54:30 20:58:02 26° 264° (W) 21:01:32 437.445
STRAND 1 16 Jan 20:59:55 21:04:20 30° 292° (WNW) 21:08:44 437.568
Cosmos 2499 16 Jan 21:06:40 21:15:12 66° 280° (W) 21:23:12 435.465 / 435.565
Oscar 11 16 Jan 21:07:52 21:12:07 60° 260° (W) 21:16:24 145.826/435.025
HUMSAT D 16 Jan 21:13:20 21:16:43 26° 69° (ENE) 21:20:09 437.325/437.525
GONETS M04 16 Jan 21:14:02 21:22:43 75° 279° (W) 21:31:30
HO-68 16 Jan 21:16:01 21:20:11 16° 270° (W) 21:24:23 435.675
UWE-3 16 Jan 21:33:11 21:35:42 16° 267° (W) 21:38:14 435.000/436.395/437.385
FUNcube-1 16 Jan 21:40:07 21:43:26 23° 265° (W) 21:46:46 145.935
PRISM 16 Jan 21:42:04 21:46:04 48° 100° (E) 21:50:01 437.425
JAS-2 16 Jan 21:55:16 21:57:25 11° 88° (E) 21:59:37 435.910
AIST 2 16 Jan 21:57:54 22:01:28 28° 309° (NW) 22:05:06 435.215
ZACube-1 16 Jan 22:02:29 22:04:14 12° 269° (W) 22:05:59 437.345
DELFI C3 16 Jan 22:05:41 22:09:23 36° 262° (W) 22:13:08 145.870
RS-15 16 Jan 22:20:43 22:24:48 12° 93° (E) 22:28:56 29.354- 29.394
UNISAT 6 16 Jan 22:23:27 22:27:39 42° 99° (E) 22:31:54 437.425
CUBEBUG 1 16 Jan 22:24:46 22:26:58 14° 64° (ENE) 22:29:11 437.445
AISAT 16 Jan 22:31:21 22:32:16 11° 62° (ENE) 22:33:11 437.250
ESTCUBE 1 16 Jan 22:32:08 22:35:58 28° 69° (ENE) 22:39:51 437.505/2401.250
TIGRISAT 16 Jan 22:38:03 22:42:23 57° 101° (E) 22:46:47 435.000
HUMSAT D 16 Jan 22:49:02 22:52:16 23° 265° (W) 22:55:34 437.325/437.525
ANTELSAT 16 Jan 22:52:08 22:56:33 88° 94° (E) 23:01:03 437.575/2403.000
BY70-1 16 Jan 22:56:24 22:59:11 61° 259° (W) 23:02:15 436.1900
AO-85 16 Jan 23:01:46 23:03:56 14° 44° (NE) 23:06:03 145.980
VELOX 1 16 Jan 23:02:12 23:05:37 22° 67° (ENE) 23:09:01 145.980
Cosmos 2499 16 Jan 23:07:29 23:09:49 11° 299° (WNW) 23:12:08 435.465 / 435.565
QB50P1 16 Jan 23:09:28 23:10:49 11° 91° (E) 23:12:09 145.935-145.965
POLYITAN 1 16 Jan 23:11:51 23:13:38 12° 92° (E) 23:15:24 437.675
QB50P2 16 Jan 23:12:35 23:14:46 14° 92° (E) 23:16:56 145.880/145.840
GONETS M04 16 Jan 23:17:00 23:21:11 14° 300° (WNW) 23:25:25
PRISM 16 Jan 23:18:52 23:20:55 14° 296° (WNW) 23:22:58 437.425
POPSAT HIP 1 16 Jan 23:34:14 23:37:33 22° 95° (E) 23:40:51 437.405
ISS 16 Jan 23:34:25 23:37:25 36° 136° (SE) 23:40:27 145.825
JAS-2 16 Jan 23:36:09 23:43:13 72° 102° (ESE) 23:50:54 435.910
DX 1 16 Jan 23:47:39 23:51:33 32° 70° (ENE) 23:55:26 434.975-435.025
DUCHIFAT 1 16 Jan 23:50:06 23:53:46 29° 97° (E) 23:57:24 145.980
NANOSAT C BR1 16 Jan 23:53:16 23:57:06 34° 98° (E) 00:00:57 145.865
UKube-1 16 Jan 23:55:20 23:59:02 28° 69° (ENE) 00:02:45 .
CUBEBUG 1 16 Jan 23:58:26 00:02:46 55° 260° (W) 00:07:07 437.445
UNISAT 6 17 Jan 00:01:08 00:04:02 17° 294° (WNW) 00:06:58 437.425
SPROUT 17 Jan 00:01:13 00:05:27 68° 75° (ENE) 00:09:41 437.525
AISAT 17 Jan 00:03:38 00:08:05 75° 258° (WSW) 00:12:33 437.250
50 SAT 17 Jan 00:04:53 00:08:26 84° 73° (ENE) 00:12:02 437.505
ESTCUBE 1 17 Jan 00:08:56 00:12:42 26° 264° (W) 00:16:31 437.505/2401.250
TISAT 1 17 Jan 00:11:11 00:12:51 12° 64° (ENE) 00:14:31 437.305
TIGRISAT 17 Jan 00:16:31 00:18:36 13° 296° (WNW) 00:20:41 435.000
RS-15 17 Jan 00:23:04 00:34:37 66° 114° (ESE) 00:46:42 29.354- 29.394
PCSat 17 Jan 00:29:47 00:31:26 11° 102° (ESE) 00:33:04 145.827
VELOX 1 17 Jan 00:37:50 00:41:50 33° 262° (W) 00:45:53 145.980
AO-85 17 Jan 00:40:50 00:44:39 54° 242° (WSW) 00:48:28 145.980
BUGSAT 1 17 Jan 00:41:33 00:45:19 38° 99° (E) 00:49:05 437.445
QB50P1 17 Jan 00:42:46 00:46:53 55° 286° (WNW) 00:51:00 145.935-145.965
YUBILEINY 17 Jan 00:44:04 00:50:26 21° 65° (ENE) 00:56:42 435.215
POLYITAN 1 17 Jan 00:45:36 00:49:41 51° 286° (WNW) 00:53:47 437.675
QB50P2 17 Jan 00:46:44 00:50:47 46° 287° (WNW) 00:54:48 145.880/145.840
POPSAT HIP 1 17 Jan 01:09:41 01:13:18 28° 290° (WNW) 01:16:54 437.405
ISS 17 Jan 01:11:10 01:13:57 26° 332° (NNW) 01:16:46 145.825
Oscar 19 17 Jan 01:20:35 01:25:00 28° 96° (E) 01:29:21 437.125/150
JAS-2 17 Jan 01:22:28 01:27:41 23° 297° (WNW) 01:33:14 435.910
AIST 1 17 Jan 01:23:50 01:27:33 28° 76° (ENE) 01:31:14
DX 1 17 Jan 01:24:25 01:27:45 21° 265° (W) 01:31:06 434.975-435.025
DUCHIFAT 1 17 Jan 01:26:02 01:29:16 22° 292° (WNW) 01:32:30 145.980
ITUPSAT 1 17 Jan 01:27:16 01:30:30 19° 65° (ENE) 01:33:45 437.325
NANOSAT C BR1 17 Jan 01:29:38 01:32:34 19° 293° (WNW) 01:35:30 145.865
UKube-1 17 Jan 01:31:33 01:35:02 23° 264° (W) 01:38:31 .
Cosmos 2491 17 Jan 01:31:34 01:37:31 21° 80° (E) 01:43:27 435.465 / 435.565
BEESAT 2 17 Jan 01:43:47 01:44:15 10° 41° (NE) 01:44:43 435.950
TISAT 1 17 Jan 01:43:52 01:48:00 56° 260° (W) 01:52:06 437.305
BEESAT 17 Jan 02:03:12 02:07:40 42° 71° (ENE) 02:12:09 436.000
SWISSCUBE 17 Jan 02:04:17 02:08:51 49° 72° (ENE) 02:13:26 437.505
PCSat 17 Jan 02:08:36 02:14:01 86° 299° (WNW) 02:19:28 145.827
BUGSAT 1 17 Jan 02:17:56 02:20:21 16° 294° (WNW) 02:22:48 437.445
MOZHAYETS 4 17 Jan 02:35:15 02:38:59 25° 68° (ENE) 02:42:44
Cosmos 2504 17 Jan 02:35:54 02:43:12 53° 78° (ENE) 02:50:10 435.465 / 435.565
RS-15 17 Jan 02:36:41 02:47:50 42° 318° (NW) 02:59:26 29.354- 29.394
YUBILEINY 17 Jan 02:39:23 02:48:13 80° 266° (W) 02:56:58 435.215
Gurwin Techsat 1B 17 Jan 02:40:55 02:46:16 86° 104° (ESE) 02:51:35 435.225
BEESAT 3 17 Jan 02:42:42 02:46:43 80° 60° (ENE) 02:50:42 437.485
CUSAT 1 17 Jan 02:47:22 02:48:41 11° 76° (ENE) 02:50:04 437.405
ISS 17 Jan 02:50:50 02:51:19 10° 352° (N) 02:51:49 145.825
M-CUBED/EXP-1 PRIME 17 Jan 02:51:26 02:55:22 31° 66° (ENE) 02:59:05 437.505
Oscar 19 17 Jan 02:59:41 03:04:18 34° 292° (WNW) 03:08:53 437.125/150
AIST 1 17 Jan 03:01:46 03:04:56 20° 272° (W) 03:08:05
ITUPSAT 1 17 Jan 03:03:24 03:07:57 46° 261° (W) 03:12:33 437.325
AO-7 17 Jan 03:14:06 03:21:05 29° 96° (E) 03:27:59 29.400- 29.500
BEESAT 2 17 Jan 03:18:37 03:22:41 83° 58° (ENE) 03:26:43 435.950
Cosmos 2491 17 Jan 03:24:37 03:33:19 76° 278° (W) 03:42:04 435.465 / 435.565
AUBIESAT-1 17 Jan 03:31:06 03:35:29 67° 70° (ENE) 03:39:37 437.475
ITAMSAT 1 17 Jan 03:33:16 03:38:22 53° 100° (E) 03:43:27 435.822/435.867
BEESAT 17 Jan 03:42:19 03:45:37 19° 267° (W) 03:48:56 436.000
KKS-1 17 Jan 03:43:25 03:47:38 44° 72° (ENE) 03:51:53 437.445
SWISSCUBE 17 Jan 03:43:58 03:46:53 16° 268° (W) 03:49:49 437.505
PCSat 17 Jan 03:55:17 03:58:13 15° 317° (NW) 04:01:10 145.827
MOZHAYETS 4 17 Jan 04:12:02 04:16:00 29° 264° (W) 04:20:01
Gurwin Techsat 1B 17 Jan 04:23:21 04:25:26 12° 300° (WNW) 04:27:32 435.225
CUSAT 1 17 Jan 04:24:38 04:29:10 76° 280° (W) 04:35:14 437.405
M-CUBED/EXP-1 PRIME 17 Jan 04:26:04 04:29:45 24° 259° (WSW) 04:33:17 437.505
PHONESAT 2.4 17 Jan 04:26:34 04:28:51 51° 161° (SSE) 04:31:07 2401.200-2431.200
ISS 17 Jan 04:27:47 04:29:01 12° 13° (NNE) 04:30:14 145.825
Cosmos 2504 17 Jan 04:30:15 04:35:59 25° 277° (W) 04:41:35 435.465 / 435.565
DANDE 17 Jan 04:37:29 04:40:27 28° 88° (E) 04:44:12 436.750
YUBILEINY 17 Jan 04:39:30 04:43:28 14° 285° (WNW) 04:47:25 435.215
AIST 2 17 Jan 04:42:04 04:44:45 16° 45° (NE) 04:47:26 435.215
CUBESAT XI-V 17 Jan 04:46:10 04:50:51 88° 252° (WSW) 04:55:36 437.345
STARS 17 Jan 04:47:30 04:51:53 79° 257° (WSW) 04:56:17 437.465
AUBIESAT-1 17 Jan 05:09:17 05:10:07 10° 263° (W) 05:10:58 437.475
